Tracking 18942 objects as of 17-Jan-2018
HD Live streaming from Space Station
objects crossing your sky now

COSMOS 2251 DEB

Track COSMOS 2251 DEB now!
10-day predictions


NORAD ID: 38196
Int'l Code: 1993-036BSL
Perigee: 619.7 km
Apogee: 904.2 km
Inclination: 73.9 °
Period: 99.9 minutes
Semi major axis: 7132 km
RCS: 0.0033 m2 (small)
Launch date: June 16, 1993
Source: Commonwealth of Independent States (former USSR) (CIS)
Launch site: PLESETSK MISSILE AND SPACE COMPLEX (PKMTR)

Note: This is SATELLITE DEBRIS
aabbcc
Your satellite tracking list
Your tracking list is empty




NASA's NSSDC Master Catalog

Two Line Element Set (TLE):
1 38196U 93036BSL 18013.23112621 +.00001255 +00000-0 +31589-3 0  9991
2 38196 073.8907 218.7652 0199407 284.6613 073.2511 14.41125752235184
Source of the keplerian elements: AFSPC